Total_Precipitation_Accumulation
1.10 1.28 1.19 0.85 0.74 0.66 0.57 0.58 0.57 0.47 0.42 0.58 0.53 0.44 0.33 0.32 0.30 0.34 0.45 0.49 0.56 0.56 0.61 0.76 0.94 1.11 1.30 1.44 1.50 1.58 1.78 1.88 2.12 2.32 2.27 2.23 2.21 2.20 2.18 2.18 2.18 2.10 2.11 2.10
1.27 1.05 0.62 0.50 0.55 0.63 0.69 0.72 0.64 0.53 0.47 0.63 0.61 0.49 0.36 0.36 0.35 0.36 0.44 0.49 0.53 0.57 0.64 0.73 0.89 1.05 1.17 1.31 1.38 1.45 1.66 1.86 2.03 2.19 2.16 2.08 2.08 2.07 2.08 2.07 2.16 2.24 2.25 2.23
1.07 0.68 0.42 0.62 0.77 0.79 0.71 0.66 0.60 0.58 0.58 0.65 0.70 0.65 0.43 0.37 0.33 0.36 0.42 0.51 0.57 0.54 0.59 0.65 0.77 0.93 1.06 1.17 1.24 1.37 1.61 1.81 2.04 2.22 2.38 2.36 2.35 2.34 2.28 2.14 2.06 2.10 2.13 2.08
0.86 0.51 0.50 0.72 0.82 0.79 0.72 0.46 0.49 0.60 0.88 1.00 0.84 0.97 0.54 0.39 0.37 0.38 0.41 0.45 0.52 0.53 0.57 0.65 0.73 0.84 0.95 1.06 1.13 1.26 1.59 1.83 2.02 2.19 2.31 2.39 2.34 2.27 2.15 2.05 1.99 1.95 1.92 1.92
1.00 0.60 0.61 0.73 0.66 0.67 0.64 0.44 0.51 0.71 0.99 1.10 0.83 0.97 0.61 0.40 0.45 0.44 0.43 0.43 0.44 0.48 0.53 0.63 0.72 0.81 0.92 1.04 1.08 1.18 1.41 1.69 1.93 2.15 2.22 2.30 2.27 2.17 2.14 2.16 2.15 2.14 2.05 1.95
0.73 0.52 0.65 0.64 0.51 0.59 0.71 0.80 0.91 1.05 1.56 1.76 0.72 0.70 0.59 0.49 0.57 0.53 0.46 0.43 0.40 0.44 0.50 0.61 0.71 0.77 0.89 1.11 1.15 1.20 1.31 1.50 1.77 1.98 2.07 2.12 2.14 2.11 2.09 2.13 2.13 2.14 2.05 1.93
0.97 0.66 0.58 0.58 0.78 0.93 1.16 1.71 2.50 2.64 2.62 1.57 0.43 0.50 0.62 0.51 0.49 0.54 0.53 0.45 0.40 0.43 0.50 0.56 0.64 0.77 0.84 1.03 1.14 1.21 1.29 1.34 1.54 1.78 1.91 1.89 1.97 1.96 1.94 1.98 1.97 1.95 1.94 1.85
1.08 0.87 0.61 0.60 0.87 1.21 1.28 1.58 2.02 1.90 1.32 0.68 0.34 0.43 0.52 0.46 0.41 0.42 0.46 0.44 0.40 0.42 0.49 0.52 0.53 0.70 0.86 0.94 1.03 1.14 1.24 1.30 1.41 1.53 1.69 1.75 1.89 1.90 1.86 1.90 1.92 1.86 1.78 1.71
1.10 0.76 0.43 0.46 0.55 0.76 1.14 1.27 1.12 1.43 0.97 0.67 0.50 0.36 0.35 0.32 0.33 0.33 0.39 0.42 0.45 0.47 0.50 0.54 0.55 0.65 0.80 0.87 0.94 1.07 1.19 1.32 1.36 1.37 1.53 1.63 1.72 1.80 1.76 1.75 1.79 1.78 1.72 1.69
1.21 1.06 0.52 0.48 0.65 0.78 0.91 1.04 1.37 1.93 1.60 0.90 0.49 0.35 0.44 0.41 0.39 0.34 0.36 0.43 0.47 0.50 0.50 0.53 0.59 0.65 0.76 0.85 0.91 1.01 1.08 1.26 1.44 1.42 1.45 1.58 1.62 1.69 1.73 1.69 1.65 1.59 1.55 1.61
1.16 1.39 0.89 0.73 0.95 0.95 0.92 1.22 1.55 1.72 1.42 1.10 0.67 0.51 0.52 0.46 0.43 0.44 0.43 0.49 0.54 0.55 0.54 0.55 0.63 0.70 0.75 0.82 0.89 1.04 1.11 1.21 1.43 1.54 1.51 1.53 1.61 1.65 1.72 1.73 1.61 1.50 1.45 1.48
1.11 1.58 1.23 0.73 0.59 0.58 0.76 0.98 1.23 1.68 1.34 0.89 0.77 0.54 0.39 0.37 0.38 0.40 0.43 0.48 0.56 0.59 0.64 0.63 0.70 0.74 0.75 0.82 0.87 0.99 1.06 1.15 1.34 1.52 1.61 1.58 1.61 1.73 1.76 1.70 1.63 1.57 1.53 1.49
1.80 2.28 1.95 1.38 1.04 0.89 1.02 0.92 0.96 1.17 1.26 0.96 0.82 0.51 0.30 0.22 0.24 0.29 0.38 0.48 0.54 0.56 0.64 0.69 0.71 0.71 0.75 0.79 0.86 0.98 1.03 1.03 1.14 1.34 1.51 1.65 1.69 1.75 1.80 1.75 1.65 1.64 1.66 1.63
2.39 2.55 1.71 1.40 1.11 0.99 0.99 0.79 0.81 1.26 1.56 0.89 0.50 0.43 0.29 0.23 0.25 0.31 0.37 0.44 0.52 0.55 0.62 0.62 0.63 0.67 0.74 0.72 0.78 0.92 1.00 1.00 1.01 1.15 1.35 1.49 1.62 1.76 1.80 1.80 1.77 1.70 1.68 1.68
2.32 2.27 0.96 0.53 0.43 0.56 0.63 0.57 0.64 0.90 0.89 0.81 0.45 0.37 0.40 0.41 0.42 0.44 0.47 0.47 0.47 0.52 0.58 0.61 0.62 0.67 0.70 0.67 0.71 0.82 0.95 0.98 0.99 1.04 1.21 1.41 1.52 1.71 1.79 1.79 1.79 1.80 1.81 1.71
2.06 2.03 1.02 0.60 0.33 0.44 0.52 0.44 0.46 0.52 0.50 0.50 0.35 0.34 0.32 0.37 0.39 0.40 0.45 0.50 0.52 0.57 0.61 0.61 0.60 0.61 0.65 0.67 0.71 0.77 0.86 0.92 0.99 1.06 1.11 1.30 1.53 1.67 1.75 1.77 1.81 1.82 1.83 1.78
1.89 1.89 1.64 1.03 0.46 0.80 0.95 0.59 0.53 0.53 0.50 0.52 0.57 0.49 0.34 0.33 0.38 0.48 0.53 0.55 0.57 0.62 0.66 0.64 0.62 0.62 0.66 0.69 0.71 0.77 0.84 0.89 0.94 0.96 1.00 1.14 1.35 1.53 1.64 1.69 1.78 1.91 1.90 1.83
1.50 1.69 2.14 1.61 1.19 1.56 0.87 0.46 0.45 0.53 0.59 0.58 0.57 0.49 0.43 0.44 0.45 0.50 0.59 0.66 0.63 0.65 0.67 0.66 0.66 0.66 0.68 0.69 0.71 0.79 0.82 0.82 0.86 0.87 0.87 0.95 1.10 1.28 1.46 1.62 1.69 1.79 1.90 1.89
0.91 1.62 2.44 2.18 1.70 1.00 0.49 0.41 0.58 0.67 0.68 0.61 0.56 0.45 0.40 0.38 0.38 0.43 0.53 0.68 0.76 0.76 0.70 0.67 0.65 0.64 0.65 0.69 0.74 0.75 0.80 0.83 0.82 0.84 0.84 0.86 0.94 1.07 1.24 1.42 1.55 1.65 1.77 1.81
0.95 1.59 2.62 2.38 1.86 0.99 0.56 0.38 0.42 0.58 0.79 0.56 0.55 0.55 0.49 0.48 0.56 0.54 0.55 0.64 0.72 0.70 0.67 0.67 0.62 0.59 0.61 0.68 0.73 0.74 0.78 0.82 0.85 0.86 0.85 0.85 0.89 0.95 1.07 1.23 1.38 1.54 1.65 1.71
1.33 2.03 2.41 1.89 1.63 0.84 0.50 0.38 0.38 0.81 0.92 0.56 0.57 0.64 0.63 0.68 0.72 0.62 0.54 0.56 0.61 0.62 0.62 0.61 0.59 0.59 0.65 0.69 0.72 0.78 0.78 0.82 0.84 0.83 0.83 0.83 0.84 0.87 0.95 1.11 1.25 1.41 1.52 1.62
0.97 1.34 1.34 1.28 1.57 0.97 0.51 0.47 0.76 0.94 0.64 0.57 0.57 0.60 0.65 0.61 0.56 0.55 0.53 0.52 0.51 0.55 0.56 0.59 0.60 0.63 0.65 0.66 0.72 0.79 0.80 0.78 0.77 0.76 0.77 0.78 0.78 0.81 0.88 1.02 1.15 1.27 1.41 1.54
0.74 0.97 1.04 0.98 0.92 0.67 0.60 0.71 0.75 0.70 0.65 0.56 0.57 0.55 0.60 0.62 0.59 0.55 0.51 0.49 0.49 0.52 0.53 0.54 0.59 0.61 0.61 0.63 0.68 0.80 0.80 0.75 0.71 0.71 0.73 0.75 0.77 0.80 0.82 0.89 1.05 1.24 1.33 1.43
0.56 0.54 0.71 0.70 0.54 0.46 0.46 0.48 0.53 0.57 0.60 0.55 0.56 0.59 0.59 0.61 0.58 0.52 0.47 0.46 0.46 0.48 0.51 0.50 0.53 0.56 0.61 0.65 0.67 0.72 0.75 0.74 0.67 0.69 0.72 0.71 0.75 0.81 0.79 0.82 0.93 1.13 1.29 1.40
0.54 0.50 0.57 0.60 0.45 0.39 0.35 0.36 0.41 0.44 0.43 0.42 0.45 0.51 0.55 0.56 0.52 0.48 0.46 0.44 0.45 0.49 0.51 0.50 0.52 0.56 0.65 0.71 0.68 0.65 0.70 0.72 0.69 0.68 0.72 0.72 0.72 0.77 0.81 0.87 0.94 1.05 1.19 1.45
0.47 0.55 0.66 0.63 0.47 0.55 0.45 0.35 0.36 0.38 0.38 0.40 0.42 0.44 0.44 0.46 0.46 0.40 0.41 0.43 0.44 0.46 0.46 0.47 0.47 0.51 0.59 0.66 0.66 0.63 0.65 0.70 0.72 0.71 0.70 0.72 0.75 0.76 0.77 0.85 0.98 1.11 1.16 1.28